ASA744 KSLC-KSEA

Flight info

Callsign ASA744
Flight time N/A
Altitude 36000
Route CGULL1 TWF PDT CHINS5
Aircraft B739/M-SDE2E3FGHIRWXY/LB1

Departure

Time 2026-05-04 14:40
Airport Salt Lake City International Airport (KSLC)

Arrival

Time N/A
Airport Seattle–Tacoma International Airport (KSEA)
Time Latitude Longitude Altitude Speed Heading
2026-05-04 14:12 40.78617 -111.98608 4230 ft 0 kts 175°
2026-05-04 14:27 40.78618 -111.98608 4230 ft 2 kts 175°
2026-05-04 14:27 40.78642 -111.98611 4229 ft 4 kts 175°
2026-05-04 14:28 40.78668 -111.98617 4228 ft 4 kts 155°
2026-05-04 14:28 40.78689 -111.98636 4229 ft 4 kts 120°
2026-05-04 14:28 40.78694 -111.98661 4229 ft 1 kts 85°
2026-05-04 14:28 40.78694 -111.98666 4230 ft 0 kts 85°
2026-05-04 14:32 40.78696 -111.98643 4230 ft 4 kts 85°
2026-05-04 14:32 40.78699 -111.98592 4228 ft 7 kts 85°
2026-05-04 14:32 40.78704 -111.98512 4230 ft 11 kts 85°
2026-05-04 14:32 40.78711 -111.98401 4230 ft 14 kts 85°
2026-05-04 14:33 40.78721 -111.98264 4230 ft 16 kts 84°
2026-05-04 14:33 40.78732 -111.98106 4230 ft 18 kts 85°
2026-05-04 14:33 40.78742 -111.97942 4230 ft 18 kts 84°
2026-05-04 14:33 40.78753 -111.97785 4230 ft 16 kts 85°
2026-05-04 14:34 40.78802 -111.97689 4230 ft 14 kts
2026-05-04 14:34 40.78895 -111.97698 4230 ft 13 kts 355°
2026-05-04 14:34 40.78985 -111.97708 4230 ft 13 kts 354°
2026-05-04 14:34 40.79073 -111.97719 4230 ft 12 kts 355°
2026-05-04 14:35 40.79158 -111.97729 4230 ft 12 kts 355°
2026-05-04 14:35 40.79242 -111.97739 4230 ft 12 kts 355°
2026-05-04 14:35 40.79323 -111.97748 4230 ft 12 kts 355°
2026-05-04 14:35 40.79402 -111.97757 4230 ft 11 kts 355°
2026-05-04 14:36 40.79479 -111.97765 4230 ft 11 kts 355°
2026-05-04 14:36 40.79554 -111.97774 4229 ft 11 kts 355°
2026-05-04 14:36 40.79626 -111.97781 4229 ft 10 kts 355°
2026-05-04 14:36 40.79697 -111.97790 4229 ft 10 kts 354°
2026-05-04 14:37 40.79765 -111.97798 4229 ft 10 kts 354°
2026-05-04 14:37 40.79831 -111.97807 4230 ft 9 kts 355°
2026-05-04 14:37 40.79896 -111.97814 4230 ft 9 kts 355°
2026-05-04 14:37 40.79960 -111.97822 4230 ft 10 kts 355°
2026-05-04 14:38 40.80030 -111.97830 4230 ft 11 kts 355°
2026-05-04 14:38 40.80108 -111.97840 4229 ft 12 kts 355°
2026-05-04 14:38 40.80169 -111.97786 4231 ft 12 kts 75°
2026-05-04 14:38 40.80175 -111.97683 4232 ft 9 kts 87°
2026-05-04 14:39 40.80145 -111.97628 4232 ft 7 kts 172°
2026-05-04 14:39 40.80127 -111.97626 4231 ft 0 kts 175°
2026-05-04 14:39 40.79994 -111.97610 4231 ft 51 kts 174°
2026-05-04 14:40 40.78435 -111.97422 4237 ft 163 kts 173°
2026-05-04 14:40 40.77229 -111.97279 4592 ft 178 kts 175°
2026-05-04 14:40 40.75969 -111.97166 5217 ft 185 kts 177°
2026-05-04 14:40 40.74667 -111.97141 5954 ft 183 kts 185°
2026-05-04 14:41 40.73447 -111.97747 6433 ft 203 kts 218°
2026-05-04 14:41 40.72622 -111.99347 6638 ft 231 kts 252°
2026-05-04 14:41 40.73453 -112.03625 7279 ft 264 kts 310°
2026-05-04 14:42 40.76180 -112.06928 8432 ft 279 kts 317°
2026-05-04 14:42 40.77697 -112.08623 9041 ft 290 kts 318°
2026-05-04 14:42 40.79237 -112.10350 9987 ft 290 kts 317°
2026-05-04 14:43 40.80790 -112.12109 10573 ft 303 kts 317°
2026-05-04 14:43 40.82457 -112.14013 10770 ft 329 kts 316°
2026-05-04 14:43 40.84237 -112.16063 11062 ft 348 kts 317°
2026-05-04 14:43 40.86081 -112.18194 11697 ft 354 kts 317°
2026-05-04 14:44 40.87938 -112.20346 12438 ft 356 kts 317°
2026-05-04 14:44 40.89774 -112.22478 12827 ft 357 kts 318°
2026-05-04 14:44 40.91650 -112.24661 12915 ft 361 kts 318°
2026-05-04 14:44 40.93555 -112.26882 13377 ft 367 kts 318°
2026-05-04 14:45 40.95467 -112.29113 14216 ft 365 kts 318°
2026-05-04 14:45 40.97377 -112.31343 14996 ft 367 kts 319°
2026-05-04 14:45 40.99298 -112.33587 15660 ft 370 kts 319°
2026-05-04 14:45 41.01240 -112.35858 16351 ft 373 kts 318°
2026-05-04 14:46 41.03190 -112.38141 17121 ft 374 kts 318°
2026-05-04 14:46 41.05156 -112.40444 17733 ft 380 kts 319°
2026-05-04 14:46 41.07162 -112.42745 18368 ft 382 kts 321°
2026-05-04 14:46 41.09330 -112.44716 18946 ft 385 kts 328°
2026-05-04 14:47 41.11643 -112.46575 19384 ft 393 kts 328°
2026-05-04 14:47 41.13989 -112.48487 19929 ft 397 kts 327°
2026-05-04 14:47 41.16336 -112.50438 20522 ft 399 kts 327°
2026-05-04 14:47 41.18623 -112.52541 21095 ft 402 kts 322°
2026-05-04 14:48 41.20851 -112.54830 21637 ft 406 kts 321°
2026-05-04 14:48 41.23082 -112.57160 22168 ft 410 kts 321°
2026-05-04 14:48 41.25347 -112.59495 22706 ft 413 kts 321°
2026-05-04 14:48 41.27629 -112.61855 23249 ft 417 kts 319°
2026-05-04 14:49 41.29719 -112.64524 23697 ft 419 kts 311°
2026-05-04 14:49 41.31670 -112.67423 24160 ft 421 kts 310°
2026-05-04 14:49 41.33607 -112.70366 24614 ft 424 kts 311°
2026-05-04 14:49 41.35561 -112.73304 25145 ft 424 kts 311°
2026-05-04 14:50 41.37520 -112.76197 25550 ft 428 kts 312°
2026-05-04 14:50 41.39561 -112.79187 25947 ft 433 kts 313°
2026-05-04 14:50 41.41566 -112.82150 26256 ft 438 kts 312°
2026-05-04 14:50 41.43584 -112.85207 26710 ft 440 kts 311°
2026-05-04 14:51 41.45601 -112.88301 27175 ft 442 kts 311°
2026-05-04 14:51 41.47621 -112.91411 27589 ft 444 kts 311°
2026-05-04 14:51 41.49650 -112.94536 28035 ft 446 kts 311°
2026-05-04 14:51 41.51682 -112.97665 28510 ft 447 kts 311°
2026-05-04 14:52 41.53727 -113.00811 28894 ft 450 kts 311°
2026-05-04 14:52 41.55788 -113.03981 29246 ft 453 kts 311°
2026-05-04 14:52 41.57867 -113.07179 29616 ft 456 kts 311°
2026-05-04 14:52 41.59951 -113.10388 30000 ft 457 kts 311°
2026-05-04 14:53 41.62034 -113.13601 30407 ft 457 kts 312°
2026-05-04 14:53 41.64111 -113.16805 30903 ft 454 kts 311°
2026-05-04 14:53 41.66137 -113.19935 31497 ft 449 kts 311°
2026-05-04 14:53 41.68175 -113.23087 31959 ft 447 kts 311°
2026-05-04 14:54 41.70210 -113.26237 32292 ft 448 kts 311°
2026-05-04 14:54 41.72257 -113.29409 32627 ft 449 kts 311°
2026-05-04 14:54 41.74291 -113.32563 33053 ft 447 kts 311°
2026-05-04 14:54 41.76319 -113.35714 33505 ft 445 kts 311°
2026-05-04 14:55 41.78339 -113.38853 33887 ft 444 kts 311°
2026-05-04 14:55 41.80352 -113.41987 34231 ft 443 kts 311°
2026-05-04 14:55 41.82360 -113.45116 34518 ft 443 kts 311°
2026-05-04 14:55 41.84373 -113.48255 34749 ft 444 kts 310°
2026-05-04 14:56 41.86386 -113.51397 35055 ft 443 kts 310°
2026-05-04 14:56 41.88390 -113.54530 35404 ft 441 kts 310°
2026-05-04 14:56 41.90356 -113.57605 35730 ft 440 kts 310°
2026-05-04 14:56 41.92357 -113.60738 35752 ft 444 kts 310°
2026-05-04 14:57 41.96362 -113.67021 35766 ft 441 kts 310°
2026-05-04 14:57 42.00330 -113.73258 35780 ft 437 kts 310°
2026-05-04 14:58 42.04275 -113.79472 35769 ft 435 kts 310°
2026-05-04 14:58 42.07541 -113.84627 35786 ft 435 kts 310°
2026-05-04 14:59 42.12130 -113.91886 35785 ft 436 kts 310°
2026-05-04 15:00 42.18048 -114.01266 35779 ft 439 kts 310°
2026-05-04 15:00 42.22029 -114.07553 35776 ft 441 kts 311°
2026-05-04 15:01 42.28028 -114.17045 35770 ft 444 kts 311°
2026-05-04 15:01 42.32011 -114.23368 35765 ft 445 kts 310°
2026-05-04 15:02 42.36025 -114.29757 35764 ft 446 kts 311°
2026-05-04 15:02 42.40039 -114.36160 35760 ft 446 kts 311°
2026-05-04 15:03 42.42047 -114.39368 35906 ft 446 kts 311°
2026-05-04 15:03 42.44050 -114.42569 35904 ft 445 kts 311°
2026-05-04 15:03 42.48053 -114.48961 35908 ft 444 kts 312°
2026-05-04 15:04 42.52431 -114.54841 35913 ft 442 kts 318°
2026-05-04 15:04 42.56955 -114.60495 35887 ft 442 kts 318°
2026-05-04 15:05 42.61435 -114.66135 35849 ft 442 kts 318°
2026-05-04 15:05 42.65917 -114.71861 35846 ft 442 kts 318°
2026-05-04 15:06 42.70380 -114.77606 35826 ft 442 kts 318°
2026-05-04 15:07 42.76323 -114.85287 35795 ft 443 kts 318°
2026-05-04 15:07 42.80789 -114.91072 35768 ft 443 kts 318°
2026-05-04 15:08 42.85261 -114.96875 35767 ft 444 kts 318°
2026-05-04 15:08 42.89729 -115.02684 35854 ft 444 kts 318°
2026-05-04 15:09 42.94201 -115.08512 35826 ft 444 kts 318°
2026-05-04 15:09 42.98667 -115.14344 35809 ft 444 kts 318°
2026-05-04 15:10 43.05325 -115.23061 35766 ft 443 kts 318°
2026-05-04 15:11 43.11998 -115.31826 35774 ft 443 kts 318°
2026-05-04 15:11 43.16437 -115.37672 35773 ft 442 kts 318°
2026-05-04 15:12 43.20867 -115.43518 35772 ft 442 kts 318°
2026-05-04 15:12 43.25291 -115.49370 35780 ft 441 kts 318°
2026-05-04 15:13 43.29706 -115.55220 35787 ft 441 kts 318°
2026-05-04 15:13 43.34115 -115.61077 35788 ft 441 kts 318°
2026-05-04 15:14 43.38497 -115.66909 35779 ft 441 kts 318°
2026-05-04 15:14 43.42892 -115.72773 35794 ft 440 kts 318°
2026-05-04 15:15 43.47282 -115.78639 35800 ft 440 kts 318°
2026-05-04 15:15 43.51665 -115.84511 35814 ft 439 kts 318°
2026-05-04 15:16 43.58234 -115.93335 35855 ft 438 kts 318°